sat.trackr.live / text

‹ back to catalog

STARLINK-37236

NORAD 68781 · 2026-086R

PAYLOAD ACTIVE UNKNOWN

§ Identity

Operator
Country
US
Launch date
2026-04-19
Launch site
AFWTR
Launch vehicle
Mass (kg)
RCS (m²)

Purposes: comms

External: N2YO · Heavens-Above · Gunter

§ Orbital elements

Epoch: 2026-05-25T04:00:03.998880Z

Period
92.11 min
Inclination
97.2847°
Eccentricity
0.0001217
Mean motion
15.63360762 rev/d
Perigee alt
377.1 km
Apogee alt
378.8 km
Semi-major
6,756.1 km
B*
-2.3419e-2
RAAN
182.0280°
Arg perigee
90.5120°
Mean anomaly
264.5318°
Rev number
607

§ Raw data

STARLINK-372361 68781U 26086R   26145.16671295 -.01903800  00000+0 -23419-1 0  99992 68781  97.2847 182.0280 0001217  90.5120 264.5318 15.63360762  6079

JSON: /api/v1/satellites/68781 · /tle

For live sub-satellite position, see the globe view (requires WebGL).

§ Visibility from observer

Set your observer location to see the next 7 days of passes ≥ 10°. The values pass through the URL so the page stays shareable.

No JS? Fill the form by hand. The geolocation button needs JavaScript.